LAPAN-TUBSAT

Last updated on Wed Sep 17 2025 00:02:30 GMT+0000 (Coordinated Universal Time)

1 29709U 07001A 25259.62278563 .00000617 00000+0 78091-4 0 9999 2 29709 98.1189 248.0189 0012281 3.3538 356.7756 14.85468036 10536
UTC large
Height (km)
Speed (km/s)
/
Latitude / Longitude
Inclination (degrees)
Orbital Period (minutes)
Azimuth
Elevation
Range (km)
Doppler Factor

Next 0 passes for location: London (51.5072 / 0.1276)

Sorry there are no passes over London.